Stefansson Island,

5:16 PM MDT on June 24, 2017 (GMT -0600)
Stefansson Island

Weather History for CXSE - April, 2013

Change the Weather History Date:

Wednesday, April 3, 2013

  Actual Average Record
Temperature  
Mean Temperature -20 °F -  
Max Temperature -14 °F - - ()
Min Temperature -26 °F - - ()
Degree Days  
Heating Degree Days 85    
Moisture  
Dew Point -26 °F    
Average Humidity 73    
Maximum Humidity 77    
Minimum Humidity 57    
Precipitation  
Precipitation 0.00 in - - ()
Sea Level Pressure  
Sea Level Pressure 30.31 in    
Wind  
Wind Speed 6 mph ()    
Max Wind Speed 10 mph    
Max Gust Speed -    
T = Trace of Precipitation, MM = Missing Value Source: Averaged Metar Reports

Daily Weather History Graph

Daily Weather History Graph

Search for Another Location

Airport or City:

Trip Planner

Search our weather history database for the weather conditions in past years. The results will help you decide how hot, cold, wet, or windy it might be!

Date:

Astronomy

Apr. 03, 2013 Rise Set
Actual Time 5:34 AM MDT 8:37 PM MDT
Civil Twilight 4:05 AM MDT 10:08 PM MDT
Nautical Twilight 1:36 AM MDT 12:31 AM MDT
Astronomical Twilight Sun does not set Sun does not set
Moon No Moon Rise No Moon Set
Length of Visible Light 18h 03m
Length of Day
15h 02m
Last Quarter, 44% of the Moon is Illuminated
Apr 3
Last Quarter
Apr 10
New
Apr 18
First Quarter
Apr 25
Full
May 2
Last Quarter

Hourly Weather History & Observations

Time (MDT) Temp. Windchill Dew Point Humidity Pressure Visibility Wind Dir Wind Speed Gust Speed Precip Events Conditions
12:00 AM -20 °F - -25 °F 65% 30.17 in - NE 10.4 mph - -  
12:00 AM -19.7 °F -40.6 °F -25.1 °F 76% 30.17 in - NE 10.4 mph - N/A   Unknown
1:00 AM -20.6 °F -41.8 °F -26.1 °F 75% 30.20 in - NNE 10.4 mph - N/A   Unknown
2:00 AM -21.5 °F -41.7 °F -27.0 °F 75% 30.22 in - NNE 9.2 mph - N/A   Unknown
3:00 AM -22.4 °F -42.8 °F -28.1 °F 75% 30.23 in - NNE 9.2 mph - N/A   Unknown
4:00 AM -22.9 °F -40.5 °F -28.7 °F 74% 30.25 in - NNE 6.9 mph - N/A   Unknown
5:00 AM -24.0 °F -40.0 °F -29.9 °F 74% 30.26 in - North 5.8 mph - N/A   Unknown
6:00 AM -25 °F - -31 °F 57% 30.28 in - North 4.6 mph - -  
6:00 AM -25.4 °F -39.6 °F -31.4 °F 74% 30.28 in - North 4.6 mph - N/A   Unknown
7:00 AM -26.3 °F -40.6 °F -32.4 °F 73% 30.29 in - WNW 4.6 mph - N/A   Unknown
8:00 AM -26.5 °F -40.8 °F -33.0 °F 71% 30.30 in - West 4.6 mph - N/A   Unknown
9:00 AM -24.3 °F - -30.5 °F 73% 30.31 in - NW 2.3 mph - N/A   Unknown
10:00 AM -20.2 °F -38.8 °F -26.0 °F 75% 30.32 in - North 8.1 mph - N/A   Unknown
11:00 AM -18.2 °F -36.4 °F -23.8 °F 76% 30.33 in - North 8.1 mph - N/A   Unknown
12:00 PM -17 °F - -23 °F 63% 30.34 in - NNE 6.9 mph - -  
12:00 PM -16.8 °F -33.2 °F -22.5 °F 75% 30.34 in - NNE 6.9 mph - N/A   Unknown
1:00 PM -16.1 °F -32.3 °F -21.6 °F 76% 30.34 in - North 6.9 mph - N/A   Unknown
2:00 PM -15.3 °F -29.8 °F -21.1 °F 75% 30.34 in - NNE 5.8 mph - N/A   Unknown
3:00 PM -14.4 °F -26.7 °F -20.2 °F 75% 30.35 in - NNE 4.6 mph - N/A   Unknown
4:00 PM -14.4 °F -26.7 °F -20.2 °F 75% 30.37 in - NNE 4.6 mph - N/A   Unknown
5:00 PM -15.0 °F -27.4 °F -20.4 °F 77% 30.38 in - NNE 4.6 mph - N/A   Unknown
6:00 PM -16 °F - -21 °F 65% 30.38 in - NNE 5.8 mph - -  
6:00 PM -15.9 °F -30.4 °F -21.3 °F 77% 30.38 in - NNE 5.8 mph - N/A   Unknown
7:00 PM -16.8 °F -33.2 °F -22.2 °F 76% 30.39 in - NNE 6.9 mph - N/A   Unknown
9:00 PM -19.7 °F -34.9 °F -25.1 °F 76% 30.40 in - NNE 5.8 mph - N/A   Unknown
10:00 PM -21.3 °F -34.7 °F -26.9 °F 75% 30.40 in - NE 4.6 mph - N/A   Unknown
11:00 PM -20.9 °F -31.7 °F -26.3 °F 76% 30.40 in - ENE 3.5 mph - N/A   Unknown